STARLINK-30489, 57974

Orbit data source: Space-Track

STARLINK-30489, 57974 is a payload satellite owned by SpaceX/Seattle (US) in LEO that was launched on Sat, 30 Sep 2023 UTC via an FALCON 9 launch vehicle from the Air Force Eastern Test Range (AFETR). Payload-class satellites include a variety of spacecraft equipped with specific instruments for various scientific and technological missions. These include communications satellites like Starlink; space stations such as the ISS; scientific satellites like the Hubble; Earth observation satellites from companies like Planet Labs, Umbra, and HawkEye 360; GPS; miniature CubeSats for education and research; and military/defense satellites.

Loading next visibility...
Identifier
57974, 2023-151L
Orbit
LEO
Country
Flag of USUS
Related business
Manufacturer
SpaceX/Seattle
Mission
Operational Commercial Communications
Bus & Motor
STARLINK V2M, Unknown motor
Mass
730 kg wet, ~700 kg dry
Launch date (UTC)
2023-09-30 (3 years ago)
Launch vehicle
FALCON 9
Launch site
Air Force Eastern Test Range (AFETR)
Object type
Payload
Rocket body
Debris
Shape & HBR
Box + 2 Pan, 17.7 m
Radar Cross Section
33.884 m², Large (>1 m²)

Expand to show TLE details & history
Last TLE update: 1 day ago

TLE from 1 day ago
0 STARLINK-30489
1 57974U 23151L   26174.98856060  .00001338  00000-0  58126-4 0  9997
2 57974  43.0021  95.6586 0001378 260.7330  99.3366 15.27588682152021
Epoch: 2026-06-23T23:43Z
TLE epoch observation values (Epoch: 2026-06-23T23:43:31.635Z)
Latitude
-0.00002°
Longitude
-172.37546°
Altitude
482.952 km
Speed
7.626 km/s
True Right ascension
06h 22m 38s
True Declination
0° 00' 00"
Sunlit
Object was in daylight at epoch
Visualization orbit readout
Latitude
Unknown
Longitude
Unknown
Altitude
Unknown
Speed
Unknown
Apparent Right ascension
Unknown
Apparent Declination
Unknown
Sunlit
N/A
Visualization observer readout
Local Sidereal Time
13:38:13
Azimuth
Unknown
Elevation
Unknown
Doppler factor
Unknown
Orbital elements
Apogee altitude
485.914 km
Perigee altitude
484.022 km
Semi-major axis
6,863.105 km
Eccentricity
0.00014
Inclination
43.0021°
RAAN
95.6586°
Arg. of periapsis
260.733°
True anomaly
99.35218°
Mean anomaly
99.3366°
Eccentric anomaly
99.34439°
Mean motion
3.81735 °/min
Orbital period
94.31 mins
BSTAR
0.000058126
Loading maneuver chart data...
Computing Atmospheric mass density...
Loading historical data...
Loading historical data...
Loading historical data...
Loading historical data...
Loading historical data...
Loading historical data...
Loading historical data...

Documentation

Showing up to 5 results
|